AP893 Weather Reports


time (UTC)temp
F
wind
direction
speed
knots
gust
knots
rain 1hr
in
rain 24hr
in
rain mn
in
humidity
%
barometer
mb
20260503202010 63 320 0.9 7.0 0.00 0.00 0.00 69 1014.2
20260503201010 63 307 4.3 10.4 0.00 0.00 0.00 70 1014.1
20260503200011 62 1 0.0 12.2 0.00 0.00 0.00 73 1014.2
20260503195009 63 347 5.2 11.3 0.00 0.00 0.00 72 1014.4
20260503194010 63 340 2.6 8.7 0.00 0.00 0.00 72 1014.2
20260503193009 63 313 3.5 11.3 0.00 0.00 0.00 73 1014.2
20260503191010 62 333 2.6 8.7 0.00 0.00 0.00 74 1014.4
20260503190009 61 138 1.7 8.7 0.00 0.00 0.00 77 1014.4
20260503185010 61 0 1.7 8.7 0.00 0.00 0.00 78 1014.5
20260503184009 60 4 4.3 8.7 0.00 0.00 0.00 81 1014.4
20260503183010 60 11 2.6 11.3 0.00 0.00 0.00 83 1014.5
20260503182010 59 348 1.7 8.7 0.00 0.00 0.00 86 1014.5
20260503181009 58 5 4.3 10.4 0.00 0.00 0.00 85 1014.5
20260503180009 59 0 0.9 8.7 0.00 0.00 0.00 86 1014.4
20260503175010 58 357 4.3 7.8 0.00 0.00 0.00 88 1014.4
20260503172009 57 357 4.3 7.0 0.00 0.00 0.00 92 1014.0
20260503171010 56 14 0.0 7.0 0.00 0.00 0.00 96 1014.0
20260503151009 55 337 2.6 6.1 0.00 0.00 0.00 97 1013.4
20260503131010 52 150 0.0 0.0 0.00 0.00 0.00 98 1011.6
20260503081010 54 109 0.0 0.0 0.00 0.00 0.00 97 1013.0
20260503071010 55 109 0.0 0.0 0.00 0.00 0.00 96 1013.5
20260503055010 57 0 0.0 0.0 0.00 0.00 0.00 94 1013.9
20260503054009 57 0 0.0 0.0 0.00 0.00 0.00 93 1014.0
20260503053010 57 0 0.0 0.0 0.00 0.00 0.00 92 1013.9
20260503052010 57 0 0.0 0.0 0.00 0.00 0.00 92 1013.9
20260503051010 58 0 0.0 0.0 0.00 0.00 0.00 91 1014.0
20260503045011 59 0 0.0 0.0 0.00 0.00 0.00 89 1014.0
20260503043010 60 0 0.0 0.0 0.00 0.00 0.00 86 1013.9
20260503042010 60 0 0.0 0.0 0.00 0.00 0.00 84 1013.8
20260503041009 61 0 0.0 0.0 0.00 0.00 0.00 82 1013.8
20260503040010 61 0 0.0 0.0 0.00 0.00 0.00 80 1013.8
20260503034009 63 0 0.0 0.0 0.00 0.00 0.00 77 1013.7
20260503033009 63 0 0.0 0.0 0.00 0.00 0.00 76 1013.6
20260503032009 64 0 0.0 0.0 0.00 0.00 0.00 74 1013.5
20260503031010 65 0 0.0 0.0 0.00 0.00 0.00 72 1013.5
20260503030009 66 0 0.0 0.0 0.00 0.00 0.00 70 1013.5
20260503025010 67 0 0.0 0.0 0.00 0.00 0.00 68 1013.5
20260503024010 67 0 0.0 0.0 0.00 0.00 0.00 67 1013.5
20260503023009 68 0 0.0 0.0 0.00 0.00 0.00 65 1013.5
20260503014010 70 332 0.9 4.3 0.00 0.00 0.00 58 1013.8
20260503013009 71 325 0.0 6.1 0.00 0.00 0.00 56 1013.9
20260503012009 71 354 4.3 7.8 0.00 0.00 0.00 55 1013.9
20260503011010 72 1 0.0 0.0 0.00 0.00 0.00 54 1014.0
20260503010010 73 8 4.3 7.0 0.00 0.00 0.00 51 1014.0
20260503005009 74 305 1.7 4.3 0.00 0.00 0.00 48 1014.0
20260503003009 76 27 0.0 5.2 0.00 0.00 0.00 42 1014.0
20260503002009 77 107 0.0 2.6 0.00 0.00 0.00 42 1014.1
20260503001010 78 107 0.0 2.6 0.00 0.00 0.00 40 1014.2
20260503000009 78 107 0.0 5.2 0.00 0.00 0.00 39 1014.2
20260502235010 78 319 0.0 2.6 0.00 0.00 0.00 42 1014.4
20260502234009 78 271 0.9 5.2 0.00 0.00 0.00 44 1014.5
20260502232010 79 88 0.0 6.1 0.00 0.00 0.00 41 1014.5
20260502231010 79 0 0.9 7.0 0.00 0.00 0.00 41 1014.7
20260502230010 80 73 0.9 6.1 0.00 0.00 0.00 40 1014.8
20260502225010 80 158 0.0 6.1 0.00 0.00 0.00 39 1014.9
20260502223009 80 158 4.3 8.7 0.00 0.00 0.00 38 1015.0
20260502222010 80 275 0.9 6.1 0.00 0.00 0.00 38 1015.1
20260502221009 80 164 0.0 4.3 0.00 0.00 0.00 36 1015.2
20260502220010 80 337 1.7 6.1 0.00 0.00 0.00 36 1015.3
20260502215010 81 222 3.5 7.8 0.00 0.00 0.00 36 1015.5
20260502214009 81 129 1.7 7.0 0.00 0.00 0.00 36 1015.6
20260502213010 81 294 2.6 7.8 0.00 0.00 0.00 35 1015.7
20260502212010 80 92 3.5 7.8 0.00 0.00 0.00 36 1015.7
20260502211009 81 300 2.6 7.0 0.00 0.00 0.00 35 1015.8
20260502210010 81 249 1.7 7.8 0.00 0.00 0.00 36 1015.8
20260502205010 80 49 2.6 8.7 0.00 0.00 0.00 37 1015.9
20260502204010 80 347 1.7 7.8 0.00 0.00 0.00 36 1015.8
20260502203010 80 358 3.5 7.0 0.00 0.00 0.00 36 1015.7